GW6796 Weather Reports


time (UTC)temp
C
wind
direction
speed
KPH
gust
KPH
rain 1hr
cm
rain 24hr
cm
rain mn
cm
humidity
%
barometer
mb
20260906221522 23 53 3.2 11.3 0.00 0.00 0.00 22 1025.3
20260906221013 23 334 3.2 12.9 0.00 0.00 0.00 22 1025.3
20260906220512 23 226 6.4 14.5 0.00 0.00 0.00 22 1025.3
20260906220024 23 285 4.8 14.5 0.00 0.00 0.00 21 1025.5
20260906215515 23 263 3.2 14.5 0.00 0.00 0.00 21 1025.6
20260906215012 24 302 9.7 19.3 0.00 0.00 0.00 21 1025.6
20260906214536 24 255 12.9 24.1 0.00 0.00 0.00 21 1025.7
20260906214014 25 312 12.9 24.1 0.00 0.00 0.00 21 1025.6
20260906213512 25 257 17.7 24.1 0.00 0.00 0.00 21 1025.7
20260906213022 25 281 9.7 27.4 0.00 0.00 0.00 21 1025.8
20260906212513 24 326 3.2 27.4 0.00 0.00 0.00 22 1025.9
20260906212012 24 255 12.9 27.4 0.00 0.00 0.00 21 1025.9
20260906211522 25 225 6.4 32.2 0.00 0.00 0.00 22 1026.0
20260906211013 24 256 17.7 35.4 0.00 0.00 0.00 23 1026.0
20260906210515 25 261 24.1 35.4 0.00 0.00 0.00 22 1025.9
20260906210039 25 236 8.0 19.3 0.00 0.00 0.00 22 1026.1
20260906205514 24 276 9.7 19.3 0.00 0.00 0.00 24 1026.3
20260906205014 23 321 6.4 11.3 0.00 0.00 0.00 24 1026.5
20260906204524 23 14 4.8 25.7 0.00 0.00 0.00 25 1026.5
20260906204013 23 238 9.7 25.7 0.00 0.00 0.00 24 1026.5
20260906203512 23 236 14.5 24.1 0.00 0.00 0.00 24 1026.5
20260906203026 23 234 16.1 25.7 0.00 0.00 0.00 24 1026.5
20260906202513 23 296 16.1 25.7 0.00 0.00 0.00 24 1026.5
20260906202013 24 296 9.7 20.9 0.00 0.00 0.00 24 1026.6
20260906201525 23 249 9.7 22.5 0.00 0.00 0.00 24 1026.6
20260906201015 23 265 14.5 27.4 0.00 0.00 0.00 25 1026.7
20260906200511 23 251 11.3 27.4 0.00 0.00 0.00 24 1026.8
20260906200019 23 234 12.9 30.6 0.00 0.00 0.00 25 1026.8
20260906195512 23 224 17.7 30.6 0.00 0.00 0.00 25 1026.9
20260906195014 23 238 20.9 30.6 0.00 0.00 0.00 25 1026.9
20260906194526 22 236 9.7 29.0 0.00 0.00 0.00 25 1026.9
20260906194015 23 220 17.7 29.0 0.00 0.00 0.00 24 1027.0
20260906193504 24 252 12.9 22.5 0.00 0.00 0.00 23 1027.0
20260906193004 23 298 8.0 20.9 0.00 0.00 0.00 24 1027.1
20260906192504 23 301 9.7 20.9 0.00 0.00 0.00 25 1027.2
20260906192007 23 274 9.7 17.7 0.00 0.00 0.00 26 1027.1
20260906191512 23 187 12.9 17.7 0.00 0.00 0.00 28 1027.3
20260906191009 23 287 4.8 16.1 0.00 0.00 0.00 25 1027.4
20260906190510 23 4 8.0 14.5 0.00 0.00 0.00 26 1027.5
20260906190022 22 44 9.7 16.1 0.00 0.00 0.00 27 1027.5
20260906185512 22 359 9.7 16.1 0.00 0.00 0.00 28 1027.5
20260906185017 22 305 8.0 19.3 0.00 0.00 0.00 30 1027.5
20260906184523 22 297 11.3 19.3 0.00 0.00 0.00 31 1027.7
20260906184012 22 269 14.5 17.7 0.00 0.00 0.00 31 1027.9
20260906183517 21 277 3.2 12.9 0.00 0.00 0.00 32 1027.9
20260906183034 21 276 8.0 14.5 0.00 0.00 0.00 32 1027.9
20260906182513 21 204 8.0 14.5 0.00 0.00 0.00 32 1028.2
20260906182005 21 198 9.7 14.5 0.00 0.00 0.00 32 1028.3
20260906181521 21 182 6.4 12.9 0.00 0.00 0.00 33 1028.3
20260906181004 21 285 3.2 14.5 0.00 0.00 0.00 33 1028.4
20260906180508 22 171 9.7 16.1 0.00 0.00 0.00 33 1028.5
20260906180012 21 219 9.7 16.1 0.00 0.00 0.00 33 1028.6
20260906175508 21 131 8.0 14.5 0.00 0.00 0.00 34 1028.9
20260906175013 21 113 4.8 14.5 0.00 0.00 0.00 35 1028.9
20260906174515 21 199 4.8 12.9 0.00 0.00 0.00 36 1029.0
20260906174010 21 239 6.4 11.3 0.00 0.00 0.00 36 1029.0
20260906173511 21 284 4.8 11.3 0.00 0.00 0.00 35 1029.0
20260906173025 21 333 3.2 11.3 0.00 0.00 0.00 36 1029.1
20260906172513 20 34 3.2 9.7 0.00 0.00 0.00 35 1029.2
20260906172017 19 201 1.6 11.3 0.00 0.00 0.00 39 1029.3
20260906171528 19 259 6.4 12.9 0.00 0.00 0.00 39 1029.4
20260906171019 20 238 6.4 12.9 0.00 0.00 0.00 39 1029.4
20260906170505 20 226 4.8 8.0 0.00 0.00 0.00 40 1029.4
20260906170008 19 238 1.6 6.4 0.00 0.00 0.00 42 1029.5
20260906165508 19 118 3.2 9.7 0.00 0.00 0.00 42 1029.5
20260906165005 18 198 4.8 9.7 0.00 0.00 0.00 42 1029.5
20260906164512 18 219 4.8 9.7 0.00 0.00 0.00 45 1029.6
20260906164012 17 293 1.6 9.7 0.00 0.00 0.00 44 1029.8
20260906163511 17 275 3.2 9.7 0.00 0.00 0.00 47 1029.8
20260906163024 18 254 6.4 14.5 0.00 0.00 0.00 47 1029.8
20260906162513 18 231 8.0 14.5 0.00 0.00 0.00 48 1029.9
20260906162014 18 201 3.2 9.7 0.00 0.00 0.00 48 1029.9
20260906161529 18 205 4.8 11.3 0.00 0.00 0.00 48 1029.9
20260906161018 17 58 4.8 11.3 0.00 0.00 0.00 49 1030.0
20260906160514 17 241 4.8 12.9 0.00 0.00 0.00 50 1030.0
20260906160036 17 196 8.0 12.9 0.00 0.00 0.00 50 1030.0
20260906155517 17 174 6.4 12.9 0.00 0.00 0.00 50 1030.1
20260906155022 17 235 6.4 9.7 0.00 0.00 0.00 50 1030.1
20260906154508 17 232 3.2 6.4 0.00 0.00 0.00 50 1029.9
20260906154009 17 266 1.6 3.2 0.00 0.00 0.00 50 1030.0
20260906153511 17 234 1.6 3.2 0.00 0.00 0.00 49 1029.9
20260906153015 17 110 1.6 6.4 0.00 0.00 0.00 51 1029.8
20260906152511 16 68 0.0 6.4 0.00 0.00 0.00 52 1029.8
20260906152012 16 117 3.2 6.4 0.00 0.00 0.00 54 1029.9
20260906151518 16 74 3.2 6.4 0.00 0.00 0.00 54 1030.1
20260906151014 16 60 3.2 6.4 0.00 0.00 0.00 56 1030.0
20260906150514 16 58 3.2 6.4 0.00 0.00 0.00 56 1030.1
20260906150025 16 68 3.2 6.4 0.00 0.00 0.00 55 1030.1
20260906145515 16 139 1.6 6.4 0.00 0.00 0.00 56 1030.1
20260906145016 15 60 1.6 6.4 0.00 0.00 0.00 55 1030.2
20260906144535 15 67 1.6 4.8 0.00 0.00 0.00 55 1030.3
20260906144021 15 71 1.6 3.2 0.00 0.00 0.00 60 1030.2
20260906143517 13 356 1.6 3.2 0.00 0.00 0.00 62 1030.1
20260906143007 12 321 1.6 1.6 0.00 0.00 0.00 65 1030.2
20260906142514 12 235 1.6 1.6 0.00 0.00 0.00 64 1030.3
20260906142008 12 235 0.0 3.2 0.00 0.00 0.00 64 1030.4
20260906141516 12 233 0.0 3.2 0.00 0.00 0.00 64 1030.2
20260906141010 13 233 1.6 4.8 0.00 0.00 0.00 62 1030.2
20260906140517 12 134 3.2 6.4 0.00 0.00 0.00 62 1030.2
20260906140039 12 87 3.2 6.4 0.00 0.00 0.00 64 1030.1
20260906135514 12 79 3.2 4.8 0.00 0.00 0.00 66 1030.1
20260906135015 12 74 1.6 4.8 0.00 0.00 0.00 67 1030.1
20260906134529 12 73 3.2 4.8 0.00 0.00 0.00 67 1029.9
20260906134020 12 73 1.6 3.2 0.00 0.00 0.00 68 1029.9
20260906133515 12 259 0.0 0.0 0.00 0.00 0.00 64 1029.8
20260906133030 11 259 0.0 0.0 0.00 0.00 0.00 66 1029.5
20260906132517 11 259 0.0 0.0 0.00 0.00 0.00 66 1029.6
20260906132018 11 259 0.0 0.0 0.00 0.00 0.00 66 1029.6
20260906131516 11 259 0.0 0.0 0.00 0.00 0.00 66 1029.6
20260906131009 10 259 0.0 0.0 0.00 0.00 0.00 69 1029.5
20260906130510 9 259 0.0 0.0 0.00 0.00 0.00 72 1029.5
20260906130036 9 259 0.0 0.0 0.00 0.00 0.00 71 1029.4
20260906125510 9 259 0.0 0.0 0.00 0.00 0.00 71 1029.4
20260906125020 9 259 0.0 0.0 0.00 0.00 0.00 72 1029.3
20260906124526 9 259 0.0 0.0 0.00 0.00 0.00 72 1029.3
20260906124020 9 259 0.0 0.0 0.00 0.00 0.00 72 1029.4
20260906123515 9 259 0.0 1.6 0.00 0.00 0.00 71 1029.3
20260906123035 9 259 0.0 3.2 0.00 0.00 0.00 71 1029.3
20260906122518 10 255 0.0 3.2 0.00 0.00 0.00 71 1029.3
20260906122018 10 276 0.0 0.0 0.00 0.00 0.00 71 1029.2
20260906121535 10 276 0.0 0.0 0.00 0.00 0.00 70 1029.3
20260906121015 10 340 0.0 0.0 0.00 0.00 0.00 70 1029.3
20260906120515 10 340 0.0 0.0 0.00 0.00 0.00 71 1029.2
20260906120033 10 340 0.0 1.6 0.00 0.00 0.00 69 1029.2
20260906115512 10 340 0.0 3.2 0.00 0.00 0.00 69 1029.2
20260906115011 10 340 1.6 3.2 0.00 0.00 0.00 68 1029.1
20260906114532 10 340 1.6 3.2 0.00 0.00 0.00 68 1029.2
20260906114016 11 110 0.0 0.0 0.00 0.00 0.00 67 1029.2
20260906113515 11 110 0.0 4.8 0.00 0.00 0.00 67 1029.2
20260906113040 11 110 1.6 4.8 0.00 0.00 0.00 67 1029.3
20260906112515 11 103 1.6 4.8 0.00 0.00 0.00 67 1029.3
20260906112020 11 94 3.2 6.4 0.00 0.00 0.00 67 1029.3
20260906111650 11 136 1.6 9.7 0.00 0.00 0.00 67 1029.3
20260906111648 11 82 6.4 9.7 0.00 0.00 0.00 66 1029.3
20260906111640 11 89 3.2 8.0 0.00 0.00 0.00 65 1029.2
20260906111637 11 236 0.0 1.6 0.00 0.00 0.00 65 1029.3
20260906104012 10 236 0.0 1.6 0.00 0.00 0.00 66 1029.2
20260906103514 10 236 1.6 3.2 0.00 0.00 0.00 66 1029.3
20260906103023 11 236 1.6 3.2 0.00 0.00 0.00 66 1029.3
20260906102514 11 236 3.2 3.2 0.00 0.00 0.00 65 1029.2
20260906102003 11 229 1.6 3.2 0.00 0.00 0.00 64 1029.2
20260906101504 11 195 3.2 3.2 0.00 0.00 0.00 64 1029.2
20260906101006 11 252 0.0 3.2 0.00 0.00 0.00 65 1029.1
20260906100505 11 252 1.6 3.2 0.00 0.00 0.00 65 1029.1
20260906100010 11 252 0.0 4.8 0.00 0.00 0.00 64 1029.1
20260906095507 11 252 3.2 4.8 0.00 0.00 0.00 63 1028.9
20260906095008 12 77 0.0 6.4 0.00 0.00 0.00 62 1028.9
20260906094520 12 75 0.0 6.4 0.00 0.00 0.00 62 1028.9
20260906094009 12 84 4.8 6.4 0.00 0.00 0.00 63 1028.9
20260906093512 11 89 0.0 6.4 0.00 0.00 0.00 64 1028.9
20260906093020 11 89 1.6 6.4 0.00 0.00 0.00 64 1028.9
20260906092514 11 217 1.6 3.2 0.00 0.00 0.00 63 1028.9
20260906092014 11 233 0.0 1.6 0.00 0.00 0.00 62 1028.9
20260906091528 12 233 0.0 1.6 0.00 0.00 0.00 61 1028.7
20260906091012 11 233 0.0 1.6 0.00 0.00 0.00 62 1028.7
20260906090506 11 233 0.0 0.0 0.00 0.00 0.00 63 1028.7
20260906090006 11 233 0.0 0.0 0.00 0.00 0.00 63 1028.8
20260906085506 11 233 0.0 0.0 0.00 0.00 0.00 64 1028.8
20260906085010 11 233 0.0 0.0 0.00 0.00 0.00 64 1028.8
20260906084516 11 233 0.0 0.0 0.00 0.00 0.00 64 1028.8
20260906084007 11 233 0.0 0.0 0.00 0.00 0.00 64 1028.8
20260906083511 11 233 0.0 0.0 0.00 0.00 0.00 65 1028.7
20260906083022 11 233 0.0 0.0 0.00 0.00 0.00 65 1028.6
20260906082513 11 233 0.0 3.2 0.00 0.00 0.00 65 1028.7
20260906082012 11 233 0.0 3.2 0.00 0.00 0.00 64 1028.9
20260906081532 12 233 3.2 3.2 0.00 0.00 0.00 63 1028.9
20260906081015 12 222 0.0 4.8 0.00 0.00 0.00 62 1028.8
20260906080513 12 222 0.0 4.8 0.00 0.00 0.00 60 1028.7
20260906080026 12 233 3.2 6.4 0.00 0.00 0.00 60 1028.9
20260906075514 12 156 3.2 6.4 0.00 0.00 0.00 60 1028.8
20260906075004 12 167 4.8 6.4 0.00 0.00 0.00 61 1028.7
20260906074508 12 208 3.2 3.2 0.00 0.00 0.00 60 1028.8
20260906074005 13 241 0.0 1.6 0.00 0.00 0.00 57 1028.7
20260906073508 13 265 0.0 1.6 0.00 0.00 0.00 56 1028.6
20260906073011 13 276 0.0 6.4 0.00 0.00 0.00 57 1028.7
20260906072509 13 276 1.6 6.4 0.00 0.00 0.00 55 1028.8
20260906072010 15 269 3.2 6.4 0.00 0.00 0.00 53 1028.8
20260906071520 15 29 0.0 1.6 0.00 0.00 0.00 52 1028.7
20260906071012 15 29 0.0 4.8 0.00 0.00 0.00 52 1028.7
20260906070512 14 29 0.0 4.8 0.00 0.00 0.00 53 1028.7
20260906070023 14 32 1.6 4.8 0.00 0.00 0.00 54 1028.8
20260906065514 14 248 0.0 0.0 0.00 0.00 0.00 54 1028.8
20260906065016 14 248 0.0 0.0 0.00 0.00 0.00 54 1028.8
20260906064534 14 248 0.0 0.0 0.00 0.00 0.00 53 1028.8
20260906064015 15 248 0.0 0.0 0.00 0.00 0.00 53 1028.9
20260906063515 15 312 0.0 0.0 0.00 0.00 0.00 52 1028.9
20260906063008 15 312 0.0 0.0 0.00 0.00 0.00 52 1028.9
20260906062504 14 315 0.0 1.6 0.00 0.00 0.00 53 1029.0
20260906062008 14 315 0.0 3.2 0.00 0.00 0.00 54 1029.1
20260906061513 14 359 0.0 3.2 0.00 0.00 0.00 56 1029.1
20260906061008 13 8 1.6 3.2 0.00 0.00 0.00 56 1029.1
20260906060512 13 8 1.6 4.8 0.00 0.00 0.00 56 1029.1
20260906060019 13 312 0.0 4.8 0.00 0.00 0.00 56 1029.2
20260906055512 13 311 3.2 4.8 0.00 0.00 0.00 56 1029.2
20260906055012 14 79 0.0 1.6 0.00 0.00 0.00 56 1029.2
20260906054524 14 79 0.0 1.6 0.00 0.00 0.00 55 1029.2
20260906054013 15 79 0.0 3.2 0.00 0.00 0.00 55 1029.2
20260906053516 15 79 1.6 3.2 0.00 0.00 0.00 54 1029.3
20260906053035 15 338 0.0 1.6 0.00 0.00 0.00 54 1029.2
20260906052516 15 338 0.0 1.6 0.00 0.00 0.00 54 1029.3
20260906052018 15 336 0.0 3.2 0.00 0.00 0.00 54 1029.3
20260906051509 15 336 1.6 3.2 0.00 0.00 0.00 54 1029.3
20260906051008 15 350 3.2 4.8 0.00 0.00 0.00 54 1029.3
20260906050508 14 336 3.2 4.8 0.00 0.00 0.00 55 1029.3
20260906050043 14 323 3.2 6.4 0.00 0.00 0.00 55 1029.3
20260906045508 14 359 3.2 8.0 0.00 0.00 0.00 55 1029.3
20260906045010 14 4 4.8 8.0 0.00 0.00 0.00 56 1029.3
20260906044518 14 1 3.2 6.4 0.00 0.00 0.00 57 1029.4
20260906044014 14 12 3.2 3.2 0.00 0.00 0.00 59 1029.4
20260906043512 13 360 1.6 4.8 0.00 0.00 0.00 59 1029.4
20260906043027 13 359 1.6 8.0 0.00 0.00 0.00 59 1029.5
20260906042515 14 339 3.2 12.9 0.00 0.00 0.00 58 1029.6
20260906042013 14 188 6.4 12.9 0.00 0.00 0.00 57 1029.8
20260906041531 15 157 8.0 12.9 0.00 0.00 0.00 56 1029.6
20260906041017 15 142 1.6 4.8 0.00 0.00 0.00 54 1029.5
20260906040515 15 190 1.6 4.8 0.00 0.00 0.00 55 1029.4
20260906040035 15 159 4.8 4.8 0.00 0.00 0.00 56 1029.5
20260906035508 15 208 1.6 3.2 0.00 0.00 0.00 55 1029.4
20260906035009 15 236 3.2 4.8 0.00 0.00 0.00 54 1029.4
20260906034523 16 113 1.6 11.3 0.00 0.00 0.00 53 1029.4
20260906034011 16 66 4.8 11.3 0.00 0.00 0.00 53 1029.4
20260906033511 16 122 6.4 9.7 0.00 0.00 0.00 52 1029.3
20260906033025 16 100 6.4 9.7 0.00 0.00 0.00 52 1029.3
20260906032511 16 89 4.8 6.4 0.00 0.00 0.00 52 1029.2
20260906032015 16 77 3.2 4.8 0.00 0.00 0.00 54 1029.2
20260906031529 15 55 1.6 4.8 0.00 0.00 0.00 54 1029.1
20260906031016 16 55 1.6 4.8 0.00 0.00 0.00 53 1029.1
20260906030519 16 55 1.6 4.8 0.00 0.00 0.00 52 1028.9
20260906030029 16 78 1.6 6.4 0.00 0.00 0.00 51 1028.9
20260906025517 16 76 3.2 6.4 0.00 0.00 0.00 50 1028.9
20260906025018 16 83 4.8 6.4 0.00 0.00 0.00 50 1028.8
20260906024536 16 79 6.4 9.7 0.00 0.00 0.00 49 1028.7
20260906024009 16 79 6.4 9.7 0.00 0.00 0.00 49 1028.7
20260906023513 16 70 8.0 9.7 0.00 0.00 0.00 49 1028.7
20260906023024 16 82 6.4 9.7 0.00 0.00 0.00 48 1028.6
20260906022512 17 75 6.4 9.7 0.00 0.00 0.00 47 1028.6
20260906022015 17 117 4.8 4.8 0.00 0.00 0.00 46 1028.6
20260906021524 17 124 0.0 3.2 0.00 0.00 0.00 46 1028.6
20260906021014 17 118 1.6 8.0 0.00 0.00 0.00 46 1028.5
20260906020518 17 83 4.8 8.0 0.00 0.00 0.00 47 1028.4
20260906020029 17 68 6.4 8.0 0.00 0.00 0.00 47 1028.4
20260906015513 17 65 6.4 8.0 0.00 0.00 0.00 48 1028.4
20260906015018 17 68 6.4 8.0 0.00 0.00 0.00 48 1028.5
20260906014533 17 67 6.4 6.4 0.00 0.00 0.00 49 1028.5
20260906014018 17 70 3.2 4.8 0.00 0.00 0.00 49 1028.4
20260906013514 17 70 3.2 4.8 0.00 0.00 0.00 49 1028.4
20260906013034 17 89 3.2 4.8 0.00 0.00 0.00 49 1028.5
20260906012510 17 58 0.0 9.7 0.00 0.00 0.00 49 1028.5
20260906012013 17 60 4.8 9.7 0.00 0.00 0.00 49 1028.5
20260906011517 17 51 6.4 12.9 0.00 0.00 0.00 49 1028.6
20260906011010 17 98 9.7 12.9 0.00 0.00 0.00 48 1028.7
20260906010516 17 74 6.4 11.3 0.00 0.00 0.00 49 1028.8
20260906010026 17 68 6.4 11.3 0.00 0.00 0.00 49 1028.8
20260906005517 17 63 4.8 9.7 0.00 0.00 0.00 49 1028.8
20260906005015 17 49 3.2 9.7 0.00 0.00 0.00 48 1028.8
20260906004527 18 73 3.2 9.7 0.00 0.00 0.00 48 1028.8
20260906004016 18 64 3.2 9.7 0.00 0.00 0.00 47 1028.8
20260906003518 18 70 3.2 8.0 0.00 0.00 0.00 47 1028.9
20260906003032 18 49 1.6 6.4 0.00 0.00 0.00 46 1028.8
20260906002518 18 126 3.2 12.9 0.00 0.00 0.00 45 1028.9
20260906002016 18 122 4.8 12.9 0.00 0.00 0.00 45 1028.9
20260906001532 19 75 4.8 14.5 0.00 0.00 0.00 41 1028.8
20260906001011 19 107 3.2 17.7 0.00 0.00 0.00 40 1028.7
20260906000511 20 108 12.9 17.7 0.00 0.00 0.00 39 1028.7
20260906000024 20 130 6.4 16.1 0.00 0.00 0.00 39 1028.6
20260905235515 20 147 8.0 16.1 0.00 0.00 0.00 38 1028.5
20260905235002 20 69 6.4 11.3 0.00 0.00 0.00 38 1028.4
20260905234506 20 47 4.8 11.3 0.00 0.00 0.00 37 1028.3
20260905234003 20 52 6.4 11.3 0.00 0.00 0.00 37 1028.4
20260905233505 20 49 6.4 11.3 0.00 0.00 0.00 37 1028.2
20260905233003 20 91 6.4 11.3 0.00 0.00 0.00 39 1028.2
20260905232509 20 104 6.4 12.9 0.00 0.00 0.00 40 1028.0
20260905232008 20 44 4.8 20.9 0.00 0.00 0.00 40 1028.0
20260905231512 20 58 8.0 20.9 0.00 0.00 0.00 38 1028.2
20260905231011 20 102 11.3 19.3 0.00 0.00 0.00 37 1028.2
20260905230509 21 70 6.4 17.7 0.00 0.00 0.00 36 1028.2
20260905230015 21 58 11.3 19.3 0.00 0.00 0.00 35 1028.2
20260905225512 21 130 8.0 19.3 0.00 0.00 0.00 37 1028.2
20260905225010 21 68 9.7 16.1 0.00 0.00 0.00 35 1028.2
20260905224521 21 124 11.3 16.1 0.00 0.00 0.00 35 1028.1
20260905224013 21 96 9.7 16.1 0.00 0.00 0.00 35 1028.1
20260905223502 21 96 4.8 16.1 0.00 0.00 0.00 34 1028.0
20260905223004 21 122 8.0 16.1 0.00 0.00 0.00 34 1028.0
20260905222503 21 79 8.0 14.5 0.00 0.00 0.00 34 1028.0
20260905222009 21 101 3.2 14.5 0.00 0.00 0.00 34 1027.9